GFSNIL_sfc_dewp_057.txt.gz
Dewpoint
73 68 68 71 67 67 66 68 73 74 75 75 75 75 75 73 73 74 72 72 70 65
73 72 70 72 71 68 71 67 71 73 73 74 75 75 75 73 74 74 74 73 73 70
71 72 72 72 72 72 70 71 70 72 73 73 74 75 76 73 74 75 72 72 74 74
70 70 71 71 71 73 71 72 72 73 73 73 73 74 75 75 74 75 75 74 74 74
70 71 70 71 71 73 73 72 72 72 73 73 73 73 74 73 72 73 74 74 75 73
69 70 71 71 71 72 72 72 71 71 72 72 72 73 74 74 73 73 74 74 74 74
70 70 70 72 73 72 73 72 72 72 72 72 72 72 72 73 73 74 73 74 74 74
71 71 72 72 73 72 73 73 73 72 72 72 71 69 72 72 73 73 73 74 74 74
72 72 72 73 73 74 73 73 73 72 72 72 69 65 66 71 71 73 74 73 74 74
72 72 73 73 74 74 74 73 73 72 72 73 73 64 64 67 71 72 73 74 73 72
72 72 73 73 73 73 73 74 74 73 74 73 73 64 63 64 71 73 74 74 74 75
72 72 73 73 73 73 73 73 73 72 73 74 74 63 62 65 71 72 74 74 75 75
72 72 73 73 74 74 74 72 71 71 73 70 74 65 60 64 70 71 70 74 75 66
73 73 74 74 75 74 74 73 74 73 74 74 72 73 60 58 71 70 70 70 70 71

GFSNIL_sfc_dewp_060.txt.gz
Dewpoint
75 68 69 71 67 66 65 65 70 73 74 75 74 75 75 72 71 73 72 73 71 64
74 73 69 74 71 67 72 66 69 71 73 73 74 74 75 71 73 73 73 74 73 70
71 73 73 72 73 72 70 71 70 71 71 71 72 74 75 73 74 75 72 70 73 74
70 70 72 71 72 72 72 72 73 72 71 70 72 73 75 74 72 74 75 74 73 74
71 71 70 71 72 73 73 73 73 73 72 71 71 73 74 73 71 72 73 73 74 73
69 70 71 72 72 73 73 73 72 72 73 72 71 72 73 73 73 72 72 73 73 73
70 70 70 73 74 72 74 74 73 73 72 72 71 70 71 72 73 72 71 73 73 73
72 72 72 73 74 74 74 73 74 73 73 72 70 66 70 70 71 72 72 72 73 74
74 74 74 75 75 76 75 75 74 73 73 72 68 64 64 68 69 71 72 72 73 74
74 75 75 75 76 76 76 75 75 74 73 74 74 63 63 65 68 68 71 74 73 71
74 75 75 76 76 77 75 75 75 74 75 75 74 64 62 64 71 72 73 73 73 75
74 74 75 75 76 75 74 75 74 73 75 76 75 62 62 65 71 70 74 73 74 74
75 75 75 75 76 76 74 73 71 72 74 71 75 65 61 65 70 71 68 74 76 66
74 75 75 77 76 75 75 74 75 73 75 75 74 73 60 59 72 68 67 67 66 67

GFSNIL_sfc_dewp_063.txt.gz
Dewpoint
75 67 67 71 66 64 62 64 76 74 73 74 75 73 76 72 71 75 71 73 74 66
74 72 67 73 74 68 72 65 68 71 73 72 72 74 77 71 75 74 74 74 74 70
74 74 73 74 76 73 73 74 71 72 71 72 74 74 77 74 75 75 72 69 75 75
73 72 74 74 75 75 74 75 75 74 73 72 72 74 77 77 74 75 76 75 73 75
74 72 71 73 74 76 76 75 76 75 75 73 72 74 76 74 72 72 73 74 75 73
72 72 72 74 74 75 76 76 73 75 76 74 73 74 75 76 75 74 74 74 74 74
71 72 71 73 75 75 76 76 76 76 76 75 73 73 72 74 75 75 73 74 74 74
72 73 73 73 75 75 76 76 77 77 76 76 73 68 73 73 74 75 74 74 73 74
73 74 74 74 75 76 76 77 77 76 76 75 69 64 64 70 71 73 74 75 75 75
73 74 74 74 75 76 77 77 77 77 77 77 76 63 62 65 69 71 73 75 75 73
74 74 75 76 75 77 77 77 77 77 77 77 76 64 62 64 72 71 72 74 75 76
74 75 75 76 76 77 77 77 76 77 77 78 77 63 61 64 71 71 74 74 74 74
75 76 76 77 77 77 77 76 73 75 77 73 78 66 60 64 69 71 69 75 76 67
76 77 77 78 78 78 77 75 77 76 76 77 76 76 60 59 73 69 68 67 66 68

GFSNIL_sfc_dewp_069.txt.gz
Dewpoint
71 68 70 71 70 69 70 70 71 74 72 72 73 73 73 71 72 72 72 70 71 71
72 67 69 69 71 70 69 70 71 74 72 74 73 73 73 72 72 72 72 72 71 72
69 71 69 69 70 70 67 70 72 73 73 74 73 72 73 71 72 71 71 70 72 71
66 70 71 68 67 70 70 72 74 74 74 74 74 73 73 71 72 71 72 72 72 72
67 68 69 70 68 70 69 70 73 73 73 73 72 73 74 71 71 72 71 72 72 72
70 66 67 67 70 67 73 69 71 73 73 72 73 72 73 73 72 72 72 71 72 72
70 70 66 66 65 71 70 73 73 73 73 73 72 72 72 73 73 73 73 73 73 73
70 70 71 69 68 65 71 69 71 73 73 73 73 72 72 72 73 73 73 72 73 73
71 70 70 70 70 67 67 72 70 70 72 73 73 69 68 70 71 73 73 73 73 73
71 71 71 71 70 70 67 67 71 72 73 72 73 66 66 68 69 69 72 72 72 72
70 70 71 71 70 70 71 69 69 70 72 73 73 66 64 66 69 69 69 72 73 72
69 70 70 70 70 70 70 71 70 71 72 73 73 65 64 63 66 68 69 70 70 71
69 70 70 71 70 71 70 69 72 71 72 71 73 65 63 64 69 67 67 69 70 66
69 69 70 70 70 70 70 70 70 71 71 72 73 73 62 60 71 70 68 67 68 69

GFSNIL_sfc_dewp_072.txt.gz
Dewpoint
67 67 68 70 69 69 70 71 72 73 72 72 72 72 72 71 71 72 71 70 70 70
70 68 67 69 70 70 69 70 71 73 71 72 72 72 72 70 70 71 71 71 70 70
67 70 67 68 69 70 69 70 71 73 71 71 72 72 72 71 71 71 70 71 70 70
65 68 70 68 68 69 69 69 70 72 71 72 72 71 72 71 70 71 70 70 70 70
64 66 69 70 67 68 69 70 72 73 72 72 73 71 71 70 70 71 70 70 70 71
65 64 66 68 70 66 69 69 73 72 72 72 73 73 72 71 70 71 71 70 70 71
68 65 63 66 68 69 66 68 69 72 72 72 71 71 72 73 72 71 71 71 71 71
69 69 66 64 66 67 69 68 70 70 72 72 71 71 71 71 71 72 71 72 72 72
68 70 70 67 64 66 65 69 70 72 71 71 71 67 67 70 71 71 71 71 72 72
70 69 70 70 68 67 66 64 69 68 71 72 72 66 65 68 70 71 72 72 71 72
70 70 70 70 70 69 69 65 65 70 69 69 71 65 64 66 70 70 69 71 72 72
72 71 71 70 70 70 70 69 66 66 71 71 71 64 63 65 70 70 70 69 70 71
70 71 71 71 70 70 70 70 70 68 68 67 70 64 62 64 70 69 69 69 70 65
68 69 70 71 72 70 70 70 70 70 70 70 71 70 61 60 71 71 69 68 68 69

GFSNIL_sfc_dewp_075.txt.gz
Dewpoint
66 66 67 68 68 69 70 70 71 72 72 71 71 71 70 70 70 70 69 69 69 69
66 66 66 68 69 69 69 70 71 73 72 71 71 71 71 70 70 70 70 70 69 69
68 68 67 67 69 70 69 69 70 73 71 71 71 71 71 70 70 70 70 70 70 69
66 69 69 67 67 68 70 69 70 72 72 70 71 71 71 70 70 70 70 69 69 69
65 66 69 68 67 67 68 69 70 70 72 71 71 71 71 70 71 70 69 70 69 69
64 64 65 68 69 67 67 68 70 71 72 71 71 71 71 71 70 70 70 70 70 69
65 64 64 64 67 69 67 68 69 72 72 72 72 72 72 71 71 70 70 71 71 70
66 65 64 64 64 67 69 67 68 69 72 72 72 72 72 72 72 71 71 70 71 71
67 67 66 64 63 65 67 68 67 68 68 71 71 67 67 70 71 71 71 70 71 71
68 69 69 67 65 63 64 65 66 68 69 69 70 65 65 67 70 70 70 70 70 70
69 68 69 69 68 65 64 64 64 64 67 70 69 65 63 65 70 70 70 70 71 71
70 70 69 69 69 69 67 66 65 64 64 66 67 63 63 64 69 70 70 70 70 71
69 71 72 70 70 71 71 69 69 67 65 65 68 61 61 64 70 70 70 70 70 64
66 68 69 71 72 71 71 71 70 69 68 66 68 69 60 60 69 69 69 69 69 70

GFSNIL_sfc_dewp_078.txt.gz
Dewpoint
68 67 68 69 69 70 70 71 73 73 73 72 72 72 72 71 71 71 71 71 72 71
67 68 67 69 70 70 71 71 72 73 73 72 72 72 73 71 71 72 73 72 72 71
66 67 68 68 69 70 71 71 73 73 73 73 72 72 72 72 72 72 71 71 72 72
68 67 67 67 69 70 71 71 71 73 73 73 72 72 72 72 72 71 72 71 71 71
68 68 68 67 68 69 70 71 71 72 73 73 72 72 72 71 72 71 71 71 71 71
66 67 68 68 68 69 69 70 70 71 72 72 72 72 72 72 72 72 72 71 71 71
66 66 66 68 69 68 69 69 69 71 71 72 73 73 73 72 72 72 72 72 72 72
66 67 66 67 68 69 69 69 69 70 71 72 73 71 73 73 72 72 72 72 72 72
68 68 67 67 67 68 69 69 69 69 70 71 71 68 67 71 72 73 72 72 73 73
69 69 68 67 67 66 67 69 68 68 69 70 71 65 65 67 72 72 72 73 73 71
68 69 69 69 67 66 66 67 68 68 69 69 69 63 64 66 71 72 72 72 72 72
70 69 69 69 70 69 67 66 66 67 68 69 69 61 62 64 70 71 72 72 72 72
66 69 70 69 70 71 70 68 66 67 67 65 68 61 60 63 68 68 69 71 72 65
64 66 68 70 72 71 71 71 70 69 69 68 66 67 58 59 69 69 68 69 69 71

GFSNIL_sfc_dewp_084.txt.gz
Dewpoint
74 70 69 69 66 67 67 68 71 75 73 73 73 74 74 70 69 71 69 72 72 65
73 73 69 70 71 67 70 67 72 73 71 72 73 75 75 69 72 72 72 71 73 70
72 73 73 72 72 71 69 71 71 73 73 72 74 74 75 71 73 73 69 68 71 73
70 71 72 71 71 71 71 72 74 75 75 72 73 74 75 73 72 72 72 72 72 73
71 71 70 71 70 71 72 72 73 75 75 74 72 73 74 73 70 72 72 71 73 72
69 70 71 70 71 71 72 72 71 72 74 74 72 73 75 74 73 72 72 72 72 72
69 69 69 71 70 71 72 72 71 71 72 73 73 71 73 74 74 73 73 73 73 72
69 70 70 72 71 70 71 72 72 71 71 71 70 69 72 72 73 75 74 73 74 73
70 70 71 72 72 72 72 72 72 72 71 70 65 63 65 70 74 73 74 73 74 74
71 71 72 71 72 72 72 72 73 72 72 72 72 63 63 67 69 69 72 74 73 71
68 70 71 72 73 72 72 72 72 72 73 73 72 63 62 64 70 71 73 73 73 74
61 65 68 72 72 73 73 73 71 71 72 73 73 62 61 65 69 68 72 73 74 75
61 63 63 68 71 75 76 72 71 71 72 69 73 65 60 63 67 68 66 71 74 66
60 61 62 64 67 71 75 75 75 73 73 73 71 72 60 58 70 67 66 65 64 64

GFSNIL_sfc_dewp_087.txt.gz
Dewpoint
74 70 68 70 72 67 72 66 76 74 73 73 72 72 74 71 69 73 70 72 75 70
75 74 70 74 71 69 71 71 71 71 72 72 72 73 74 71 72 73 72 72 72 70
72 74 73 71 72 71 71 70 72 72 72 72 72 72 74 74 74 73 70 67 75 74
71 72 73 72 72 72 71 72 72 74 72 73 72 73 75 76 72 73 73 73 72 74
71 71 71 72 72 73 74 72 72 72 73 73 72 74 75 72 69 71 71 71 72 71
70 70 70 71 72 73 73 73 70 72 75 73 72 74 74 74 73 71 71 71 72 72
70 70 70 72 73 71 74 74 73 73 74 74 73 72 72 73 74 74 72 72 72 72
70 71 71 72 72 72 74 74 74 74 73 73 70 68 73 73 72 75 74 74 74 73
72 73 74 72 72 73 73 74 75 74 74 73 66 63 65 71 72 74 75 74 75 76
67 68 70 73 74 75 74 74 75 75 74 75 75 64 62 65 69 72 74 75 75 73
63 65 67 69 73 74 74 74 75 74 75 76 74 64 62 64 71 71 73 74 75 76
60 61 63 66 67 72 75 76 74 74 74 75 76 64 61 64 70 68 72 73 74 74
61 61 60 61 64 67 71 74 76 74 74 71 75 66 61 63 69 70 68 72 74 66
59 60 62 62 63 64 65 69 73 75 76 75 73 74 60 59 72 69 68 67 67 68

GFSNIL_sfc_dewp_093.txt.gz
Dewpoint
71 71 69 70 70 71 71 70 73 73 73 73 73 72 73 70 71 70 70 69 70 71
72 71 71 71 72 70 71 74 74 73 73 73 73 72 72 71 72 70 70 70 71 71
73 72 72 72 71 71 71 71 71 71 72 72 73 72 72 71 71 71 72 71 69 71
73 73 73 72 73 71 70 71 70 69 68 69 71 73 72 72 71 70 71 71 71 69
73 73 72 73 73 72 71 71 69 65 63 64 71 73 73 72 71 70 70 70 71 69
73 72 72 73 73 73 73 72 71 70 68 71 72 73 72 72 71 72 71 71 71 71
69 70 71 74 74 74 74 73 72 73 72 73 73 73 73 72 71 71 71 73 73 72
69 70 69 70 73 73 73 74 73 72 72 74 73 71 73 72 73 71 71 72 73 72
68 68 68 69 70 72 71 72 73 73 73 72 72 69 68 71 72 73 72 71 72 73
66 65 66 67 68 68 69 72 72 72 71 72 73 67 65 65 68 72 72 73 72 71
64 64 64 65 65 66 67 68 69 71 73 72 73 67 64 66 67 67 69 72 73 72
62 62 63 63 64 65 66 66 68 69 70 72 72 66 63 65 69 69 69 69 70 73
59 59 60 62 62 63 64 64 67 67 69 68 72 66 62 63 69 70 71 70 70 65
57 58 57 59 59 59 60 63 64 66 67 69 70 69 59 59 67 71 72 71 70 70

GFSNIL_sfc_dewp_096.txt.gz
Dewpoint
70 70 70 69 69 70 70 71 71 72 72 72 71 71 71 70 71 70 70 68 69 69
71 70 68 69 69 69 70 71 72 72 72 72 72 71 72 71 71 71 69 68 70 70
71 70 70 71 71 71 71 72 72 72 72 72 72 72 72 71 71 70 70 70 69 69
72 71 71 71 71 71 71 71 71 71 71 71 72 72 71 71 71 69 70 70 70 70
71 71 71 72 72 71 70 70 69 69 69 68 69 71 72 71 71 70 69 69 69 70
69 71 71 71 72 72 69 69 69 66 63 62 66 70 72 72 71 71 71 69 69 70
69 69 69 70 71 72 72 70 70 70 69 68 70 71 72 72 71 70 71 71 71 71
68 69 67 68 69 70 72 72 72 71 72 72 73 72 72 72 72 70 70 71 71 72
67 67 67 68 68 68 69 71 72 72 71 71 72 69 67 71 72 72 71 70 71 71
65 64 65 65 65 66 67 68 68 70 71 71 72 67 65 66 69 71 71 72 71 70
64 64 64 64 64 64 66 66 67 68 69 70 72 66 64 65 68 67 67 69 71 72
61 61 63 63 63 64 64 64 65 67 67 68 69 63 62 64 70 69 69 69 69 70
56 57 58 59 60 63 63 64 65 65 66 65 68 60 59 62 69 69 70 70 71 65
53 53 54 55 57 59 58 58 60 63 65 67 65 63 57 58 66 67 68 70 71 70

GFSNIL_sfc_dewp_102.txt.gz
Dewpoint
68 69 69 70 70 71 71 71 72 72 72 72 71 70 71 71 72 72 71 71 71 70
69 69 69 70 70 71 71 72 72 72 72 72 72 72 73 72 71 72 71 71 70 71
70 70 70 70 70 70 71 71 71 71 72 72 72 72 72 73 72 72 71 71 71 71
70 70 71 70 70 71 72 72 72 72 72 72 72 73 72 72 72 71 71 71 72 71
71 71 71 71 71 72 72 72 72 72 72 73 72 73 73 72 72 71 71 71 71 71
68 69 69 70 71 72 72 72 71 71 71 71 71 71 72 72 72 71 71 71 71 71
67 67 68 69 69 69 71 72 71 71 70 69 69 69 70 71 72 72 72 72 72 71
68 68 67 67 68 68 69 69 72 71 71 70 68 66 69 70 71 72 72 72 72 72
67 67 66 66 66 66 67 67 68 69 71 71 72 67 65 68 72 72 72 72 73 73
65 64 64 64 64 65 65 66 66 67 68 69 71 62 63 65 70 72 72 72 72 72
63 62 62 62 62 63 63 65 65 66 67 68 69 60 60 63 70 70 70 70 70 71
58 58 58 58 59 61 61 61 63 65 66 68 63 58 59 65 69 69 69 70 70 69
54 54 56 58 58 60 60 59 62 66 65 62 63 55 56 60 63 60 62 65 66 62
50 51 52 53 53 54 56 56 56 55 56 56 54 52 51 53 58 58 60 61 62 64

GFSNIL_sfc_dewp_105.txt.gz
Dewpoint
72 70 70 71 70 70 72 74 73 75 75 73 73 73 73 72 72 73 72 72 73 70
72 71 71 73 73 71 73 71 73 74 74 74 74 73 73 71 73 74 74 73 73 71
72 72 72 72 73 73 73 74 73 74 74 74 74 74 74 75 75 74 72 71 73 73
72 72 73 73 73 73 73 73 73 73 73 74 74 75 75 75 74 74 74 73 73 73
71 72 72 72 73 73 73 74 74 74 74 74 74 74 75 73 73 73 73 73 73 73
72 72 73 73 73 74 74 74 74 73 73 73 74 74 75 74 74 74 73 73 73 72
71 71 71 72 72 72 74 74 74 73 73 73 72 72 72 72 73 73 72 74 74 73
68 70 69 70 70 71 72 73 74 74 73 73 72 70 71 71 71 71 72 73 74 74
68 69 68 69 68 69 70 71 72 72 73 73 72 63 65 70 73 74 74 74 75 74
66 65 66 66 67 67 68 69 69 70 71 71 69 61 62 66 73 73 73 74 73 73
63 63 64 63 63 63 65 66 67 69 70 66 61 58 60 64 72 73 72 72 72 72
59 60 60 59 60 62 62 64 68 68 65 61 58 54 56 63 64 64 65 67 66 65
56 58 59 60 61 61 62 61 59 58 56 54 52 51 52 57 57 59 59 61 63 61
54 54 55 55 56 57 56 55 56 55 55 52 51 48 49 50 53 54 53 54 55 56

GFSNIL_sfc_dewp_108.txt.gz
Dewpoint
74 68 74 71 68 67 74 68 72 72 71 72 74 73 74 70 69 71 70 71 73 67
72 71 75 71 75 69 72 69 72 72 72 72 72 73 74 69 71 73 72 70 72 69
70 72 72 72 71 73 73 74 73 72 72 73 74 74 74 71 72 72 69 68 72 72
69 69 72 73 70 72 73 75 72 72 73 72 72 74 75 73 71 72 72 71 72 72
70 69 68 70 70 72 71 74 73 73 74 72 72 73 73 72 70 71 71 71 71 71
71 68 69 70 71 71 72 71 71 73 71 71 71 72 72 72 72 72 70 70 71 71
72 69 71 71 72 71 72 72 71 71 72 72 71 71 71 71 71 71 70 71 71 71
73 73 72 72 72 72 73 72 72 71 71 72 73 68 72 72 72 72 71 72 72 71
70 70 71 71 71 71 72 73 73 72 72 71 70 62 64 70 73 72 72 72 72 71
68 67 68 68 69 70 70 71 71 71 72 70 68 59 62 65 72 73 72 73 73 73
66 66 66 66 66 67 69 70 71 69 68 65 59 56 59 65 73 72 70 71 70 69
63 64 65 65 65 65 66 68 66 66 64 60 56 52 54 63 68 68 68 67 62 63
61 61 63 63 64 66 64 61 60 57 56 54 53 49 50 56 60 62 60 63 64 56
59 60 61 62 64 63 59 58 57 54 54 52 53 49 47 48 53 55 55 55 54 55

GFSNIL_sfc_dewp_111.txt.gz
Dewpoint
72 68 68 70 72 66 69 67 75 72 72 72 72 72 73 70 70 72 69 71 74 68
72 71 70 73 72 73 72 70 71 70 71 71 72 73 74 70 71 73 72 71 72 70
70 71 71 71 71 74 72 73 73 71 70 71 72 73 74 73 72 72 70 67 73 72
68 68 70 70 71 71 72 73 73 73 72 72 72 72 73 75 74 71 72 72 71 71
69 68 67 69 70 71 72 72 73 73 73 72 72 75 73 72 71 72 71 70 71 69
73 69 68 68 69 70 72 73 71 72 73 73 72 73 74 73 72 71 72 72 72 70
73 70 69 70 69 69 71 72 72 72 72 72 72 72 72 72 72 71 70 70 70 71
74 75 73 73 72 71 71 71 71 71 71 71 70 70 72 71 71 72 71 70 70 71
73 72 74 74 73 74 71 72 71 71 70 71 70 62 63 69 71 71 72 71 71 70
71 68 69 70 72 73 72 72 73 73 72 70 66 57 59 65 71 72 73 74 74 73
68 67 67 67 67 68 70 72 73 70 68 65 58 54 56 61 74 73 72 71 71 70
67 67 67 65 65 67 69 68 68 67 63 60 55 51 53 64 71 70 68 63 60 62
65 64 66 67 67 69 66 64 61 57 58 55 53 49 49 56 62 65 64 66 58 55
63 65 65 66 67 64 61 60 59 56 55 53 53 47 48 48 53 51 56 57 57 55

GFSNIL_sfc_dewp_114.txt.gz
Dewpoint
75 74 72 75 73 72 72 74 76 75 76 75 76 75 77 76 75 76 75 76 77 74
75 75 76 76 70 73 76 73 75 75 75 75 75 76 77 75 76 74 76 75 76 75
73 75 76 77 75 75 74 71 70 74 75 74 75 77 77 75 74 75 75 73 74 76
71 72 74 74 75 76 72 69 74 75 75 75 75 76 76 76 75 73 75 75 75 74
72 72 71 73 74 75 75 74 75 76 77 76 76 75 76 75 73 73 73 74 75 74
72 72 73 73 73 75 76 77 74 75 76 76 76 75 75 76 75 75 74 74 73 71
74 72 71 73 74 74 76 75 75 75 75 76 74 75 75 75 74 75 74 75 73 73
73 72 74 73 73 75 74 75 75 74 74 75 72 67 68 71 72 73 73 73 72 73
72 73 71 71 71 74 75 75 75 74 73 71 64 61 62 68 72 73 73 73 73 72
71 70 71 70 71 70 73 74 73 72 70 65 60 55 58 64 71 75 74 73 73 72
69 68 67 67 68 69 70 71 69 68 66 62 53 53 56 62 74 73 71 70 71 66
68 67 66 66 66 68 67 65 64 62 58 58 50 51 53 64 74 68 65 61 61 61
66 67 68 67 67 67 65 62 60 57 55 53 47 48 50 58 66 68 64 59 56 55
64 64 65 66 66 64 62 60 59 56 54 50 50 44 47 48 53 59 55 57 57 53

GFSNIL_sfc_dewp_117.txt.gz
Dewpoint
70 69 71 71 70 70 70 71 71 72 72 72 72 71 72 71 71 70 71 71 71 72
72 71 70 71 69 70 72 73 71 71 72 71 72 71 72 71 71 70 71 70 70 71
71 71 72 72 68 71 71 68 65 63 69 71 72 73 72 71 69 71 70 70 69 71
71 71 71 72 71 72 70 66 64 65 70 71 71 71 71 71 70 70 70 70 70 70
70 70 71 70 71 72 67 68 71 72 72 71 72 73 72 71 71 70 70 70 70 69
70 70 70 70 70 71 71 71 72 72 72 72 72 72 71 71 71 71 70 70 69 69
69 69 70 71 70 70 72 72 72 72 72 72 71 71 71 71 72 71 71 71 70 71
70 70 70 71 71 71 72 72 71 71 70 68 66 65 67 71 70 70 69 68 72 69
69 69 69 69 70 71 71 70 70 70 66 64 61 61 61 66 69 70 69 68 69 68
68 67 67 68 68 70 71 71 69 65 60 56 55 56 58 64 69 70 68 68 69 63
67 66 66 66 68 69 69 67 65 62 57 49 47 54 57 63 69 64 64 64 62 58
66 65 65 66 66 65 62 61 60 56 50 44 41 51 57 66 66 61 57 56 55 52
66 66 65 65 66 64 62 59 58 54 47 47 39 49 54 61 65 58 52 50 49 54
64 64 65 65 63 61 59 55 53 50 46 44 43 44 49 52 56 57 55 47 45 46

GFSNIL_sfc_dewp_123.txt.gz
Dewpoint
68 68 68 69 69 69 69 69 70 71 70 70 70 70 70 70 70 70 70 70 70 67
68 66 68 69 69 69 69 70 70 71 71 70 71 70 70 70 69 68 70 69 69 70
68 67 68 70 69 69 69 70 71 71 70 70 70 71 70 70 69 69 70 69 68 69
69 69 70 70 69 68 70 69 69 69 68 69 70 70 71 70 69 68 68 69 69 68
69 69 70 70 69 68 70 68 67 66 66 70 70 70 70 70 70 68 68 68 69 68
68 69 69 69 70 70 70 69 68 67 67 70 70 71 71 71 71 70 70 70 69 68
68 69 69 69 69 70 69 67 67 68 70 71 71 71 71 71 70 70 70 70 70 70
69 69 69 69 70 70 70 70 70 70 69 68 68 67 68 69 70 69 70 68 67 66
68 68 67 67 68 68 68 69 68 68 66 65 65 61 62 64 69 69 68 66 64 64
68 68 67 68 68 67 68 67 64 63 62 61 59 58 57 61 67 68 66 64 61 59
67 67 67 67 67 67 68 64 61 61 61 61 59 59 58 63 67 65 63 60 57 58
66 66 66 64 62 61 62 60 57 56 56 58 59 58 61 63 61 58 57 54 50 52
66 66 64 63 60 58 55 54 53 52 54 54 56 57 59 59 57 54 53 51 51 54
66 66 64 63 60 57 56 55 55 54 53 52 53 57 56 56 57 56 54 52 54 53